Flag for U.S.A. Weather past 2 weeks in West Covina, California, U.S.A.

Now
70 °F

Sunny.


Feels Like: 77 °F
Forecast: 57 / 69 °F
Wind: 6 mph from North

Location: Fullerton Municipal Airport


UV Index: 0 (Low)

Visibility: 10 mi


Pressure: 29.86 "Hg

Humidity: 53%

Dew point: 52 °F

Location of West CovinaLocation

Historic Weather in West Covina

°F

West Covina temperature yesterday

Maximum temperature yesterday: 70 °F (at 11:53 AM)
Minimum temperature yesterday: 60 °F (at 1:53 AM)
Average temperature yesterday: 63 °F

Past Weeks' High & Low Weather Summary

 TemperatureHumidityPressure
High94 °F (Apr 8, 2:53 PM)87% (Apr 15, 2:53 AM)30.09 "Hg (Apr 15, 2:53 AM)
Low51 °F (Apr 6, 4:53 AM)10% (Apr 8, 3:53 PM)29.78 "Hg (Apr 16, 4:53 PM)
Average65 °F56%29.95 "Hg
* Reported Apr 3 2:53 PM — Apr 18 2:53 PM, West Covina, Weather by CustomWeather, © 2014

Note: Actual official high and low records may vary slightly from our data, if they occured in-between our weather recording intervals... More about our weather records

Advertising

Historic Weather Conditions — Data for Previous 24 hours

 ConditionsComfort  
Time TempWeatherWind HumidityBarometerVisibility
2:53 PM
Apr 18
70 °FPassing clouds.7 mph53%29.88 "Hg10 mi
1:53 PM71 °FScattered clouds.8 mph51%29.89 "Hg10 mi
12:53 PM70 °FOvercast.5 mph53%29.90 "Hg10 mi
11:53 AM69 °FPassing clouds.7 mph55%29.90 "Hg10 mi
10:53 AM68 °FSunny.7 mph57%29.92 "Hg10 mi
9:53 AM65 °FOvercast.No wind63%29.92 "Hg10 mi
8:53 AM64 °FOvercast.No wind65%29.91 "Hg10 mi
7:53 AM63 °FOvercast.No wind65%29.90 "Hg10 mi
6:53 AM62 °FOvercast.3 mph70%29.87 "Hg10 mi
5:53 AM62 °FOvercast.3 mph67%29.85 "Hg10 mi
4:53 AM62 °FOvercast.5 mph70%29.86 "Hg10 mi
3:53 AM62 °FOvercast.6 mph70%29.85 "Hg10 mi
2:53 AM62 °FOvercast.5 mph70%29.86 "Hg10 mi
1:53 AM63 °FOvercast.5 mph70%29.88 "Hg10 mi
12:53 AM63 °FOvercast.5 mph70%29.89 "Hg10 mi
11:53 PM
Apr 17
63 °FOvercast.5 mph70%29.90 "Hg10 mi
10:53 PM62 °FOvercast.6 mph73%29.91 "Hg10 mi
9:53 PM62 °FOvercast.7 mph73%29.91 "Hg10 mi
8:53 PM62 °FOvercast.9 mph73%29.89 "Hg10 mi
7:53 PM62 °FOvercast.5 mph73%29.87 "Hg10 mi
6:53 PM62 °FPartly sunny.6 mph73%29.85 "Hg9 mi
5:53 PM65 °FPassing clouds.8 mph66%29.85 "Hg10 mi
4:53 PM66 °FSunny.9 mph63%29.84 "Hg9 mi
Weather by CustomWeather, © 2014

See weather overview